This is the latest recevied weather packets stored in our database for station/object WZ9ZZZ-1. If no packets are shown the sender has not sent any weather packets the latest 10 day(s).
| Time | Temp. | Humidity | Pressure | Rain* | Wind** | Luminosity | Snow |
|---|---|---|---|---|---|---|---|
| 1777813081 | 16.67° C | 94% | 1025.3 hPa | 0 mm | - | 61 W/m² | - |
| 1777812778 | 16.11° C | 94% | 1025.2 hPa | 0 mm | - | 40 W/m² | - |
| 1777812474 | 15.56° C | 94% | 1025.4 hPa | 0 mm | - | 35 W/m² | - |
| 1777812172 | 15.56° C | 94% | 1025.2 hPa | 0 mm | - | 32 W/m² | - |
| 1777811870 | 15° C | 94% | 1025.3 hPa | 0 mm | - | 31 W/m² | - |
| 1777811569 | 15° C | 94% | 1024.9 hPa | 0 mm | - | 29 W/m² | - |
| 1777811264 | 14.44° C | 94% | 1025.3 hPa | 0 mm | - | 27 W/m² | - |
| 1777810961 | 14.44° C | 94% | 1025.2 hPa | 0 mm | - | 25 W/m² | - |
| 1777810658 | 14.44° C | 94% | 1025 hPa | 0 mm | - | 23 W/m² | - |
| 1777810355 | 13.89° C | 93% | 1025 hPa | 0 mm | - | 20 W/m² | - |
| 1777810051 | 13.89° C | 93% | 1025.3 hPa | 0 mm | - | 17 W/m² | - |
| 1777809749 | 13.89° C | 93% | 1024.9 hPa | 0 mm | - | 14 W/m² | - |
| 1777809446 | 13.89° C | 93% | 1024.9 hPa | 0 mm | - | 11 W/m² | - |
| 1777809144 | 13.89° C | 93% | 1025 hPa | 0 mm | - | 9 W/m² | - |
| 1777808841 | 13.89° C | 93% | 1024.9 hPa | 0 mm | - | 5 W/m² | - |
| 1777808538 | 13.89° C | 93% | 1024.7 hPa | 0 mm | - | 3 W/m² | - |
| 1777808235 | 13.89° C | 93% | 1025 hPa | 0 mm | - | 1 W/m² | - |
| 1777807934 | 13.89° C | 93% | 1024.8 hPa | 0 mm | - | 0 W/m² | - |
| 1777807631 | 13.89° C | 93% | 1024.7 hPa | 0 mm | - | 0 W/m² | - |
| 1777807328 | 13.89° C | 93% | 1024.7 hPa | 0 mm | - | 0 W/m² | - |
| 1777807024 | 13.89° C | 93% | 1024.7 hPa | 0 mm | - | 0 W/m² | - |
| 1777806721 | 13.89° C | 92% | 1024.6 hPa | 0 mm | - | 0 W/m² | - |
| 1777806417 | 13.89° C | 92% | 1024.5 hPa | 0 mm | - | 0 W/m² | - |
| 1777806114 | 13.89° C | 92% | 1024.3 hPa | 0 mm | - | 0 W/m² | - |
| 1777805810 | 13.89° C | 92% | 1024.2 hPa | 0 mm | - | 0 W/m² | - |
* Rain latest hour (hover to see other rain measurements)
** Current wind speed in m/s (hover to see current wind gust speed)